Date String (YYYY-MM-DD hh:mm:ss) UTC,Instrument flags,absolute air pressure of the measurement (hPa),sample flow rate (lpm),inlet stack bypass flow (lpm),air temperature of the measurement (°C),ambient temperature measured by the external sensor (°C),aerosol sample conditioner tube jacket temperature (°C),OPC LED temperature (°C),internal box temperature (°C),relative humidity of the measurement (%),span deviation,mass concentration of particles derived from Lorenz-Mie calculation of OPC scattering (μg/m³),mass concentration of particles derived from Lorenz-Mie calculation of OPC scattering (μg/m³),mass concentration of particles derived from Lorenz-Mie calculation of OPC scattering (μg/m³)
DateTimeUTC,F1_M11,P_M11,Q1_M11,Q2_M11,T1_M11,T2_M11,T3_M11,T4_M11,T5_M11,U1_M11,ZSPAN_M11,X2_M11,X0_M11,X1_M11
2023-11-11 23:00:00,SystemResetWarning,0830.7,5.00,000.00,027.8,026.9,000.0,036.1,029.3,5.7,0000.0,0002.61,0005.31,0002.04
2023-11-11 23:01:00,SystemResetWarning,0830.8,4.98,000.00,027.8,026.9,000.0,036.1,029.2,5.7,0000.0,0002.62,0005.30,0002.05
2023-11-11 23:02:00,SystemResetWarning,0830.8,5.00,000.00,027.8,026.9,000.0,036.1,029.3,5.8,0000.0,0002.62,0005.30,0002.05
2023-11-11 23:03:00,SystemResetWarning,0830.8,5.00,000.00,027.8,026.9,000.0,036.1,029.3,5.9,0000.0,0002.57,0005.20,0002.04
2023-11-11 23:04:00,SystemResetWarning,0830.7,5.00,000.00,027.9,026.9,000.0,036.1,029.3,5.9,0000.0,0002.54,0005.22,0002.02
2023-11-11 23:05:00,SystemResetWarning,0830.7,5.00,000.00,027.9,026.9,000.0,036.1,029.3,5.9,0000.0,0002.53,0005.39,0002.00
2023-11-11 23:06:00,SystemResetWarning,0830.7,5.00,000.00,027.9,027.0,000.0,036.1,029.3,5.9,0000.0,0002.58,0006.12,0002.01
2023-11-11 23:07:00,SystemResetWarning,0830.7,5.00,000.00,027.9,027.0,000.0,036.1,029.3,5.9,0000.0,0002.63,0006.56,0002.01
2023-11-11 23:08:00,SystemResetWarning,0830.8,5.00,000.00,027.9,027.0,000.0,036.1,029.3,5.9,0000.0,0002.67,0006.05,0002.00
2023-11-11 23:09:00,SystemResetWarning,0830.8,5.00,000.00,027.9,027.0,000.0,036.2,029.3,5.8,0000.0,0002.74,0005.71,0002.01
2023-11-11 23:10:00,SystemResetWarning,0830.9,5.00,000.00,027.9,027.0,000.0,036.2,029.4,5.8,0000.0,0002.76,0005.82,0002.02
2023-11-11 23:11:00,SystemResetWarning,0830.9,5.00,000.00,027.9,027.0,000.0,036.2,029.4,5.8,0000.0,0002.80,0006.33,0002.02
2023-11-11 23:12:00,SystemResetWarning,0830.8,5.00,000.00,027.9,027.0,000.0,036.2,029.4,5.8,0000.0,0002.78,0006.49,0002.01
2023-11-11 23:13:00,SystemResetWarning,0830.8,4.99,000.00,028.0,027.0,000.0,036.2,029.3,5.8,0000.0,0002.77,0006.45,0002.02
2023-11-11 23:14:00,SystemResetWarning,0830.8,4.99,000.00,028.0,027.1,000.0,036.2,029.4,5.8,0000.0,0002.83,0006.69,0002.03
2023-11-11 23:15:00,SystemResetWarning,0830.8,5.00,000.00,028.0,027.1,000.0,036.2,029.4,5.9,0000.0,0002.86,0007.58,0002.02
2023-11-11 23:16:00,SystemResetWarning,0830.7,5.00,000.00,028.0,027.1,000.0,036.2,029.4,5.9,0000.0,0002.86,0007.38,0002.02
2023-11-11 23:17:00,SystemResetWarning,0830.7,5.00,000.00,028.0,027.1,000.0,036.2,029.4,5.9,0000.0,0002.77,0006.66,0001.99
2023-11-11 23:18:00,SystemResetWarning,0830.8,5.00,000.00,028.0,027.1,000.0,036.2,029.4,5.9,0000.0,0002.72,0006.20,0001.98
2023-11-11 23:19:00,SystemResetWarning,0830.7,5.00,000.00,028.0,027.1,000.0,036.2,029.4,5.8,0000.0,0002.65,0005.81,0001.96
2023-11-11 23:20:00,SystemResetWarning,0830.8,5.00,000.00,028.0,027.1,000.0,036.3,029.4,5.8,0000.0,0002.61,0005.80,0001.95
2023-11-11 23:21:00,SystemResetWarning,0830.8,5.00,000.00,028.0,027.1,000.0,036.3,029.4,5.8,0000.0,0002.58,0005.77,0001.94
2023-11-11 23:22:00,SystemResetWarning,0830.8,5.00,000.00,028.0,027.1,000.0,036.3,029.4,5.8,0000.0,0002.52,0005.29,0001.93
2023-11-11 23:23:00,SystemResetWarning,0830.8,5.01,000.00,028.0,027.1,000.0,036.3,029.4,5.7,0000.0,0002.49,0005.18,0001.92
2023-11-11 23:24:00,SystemResetWarning,0830.8,5.00,000.00,028.0,027.1,000.0,036.3,029.4,5.7,0000.0,0002.47,0005.25,0001.90
2023-11-11 23:25:00,SystemResetWarning,0830.8,5.00,000.00,028.0,027.1,000.0,036.3,029.4,5.7,0000.0,0002.48,0005.25,0001.90
2023-11-11 23:26:00,SystemResetWarning,0830.9,5.01,000.00,028.1,027.1,000.0,036.3,029.4,5.7,0000.0,0002.46,0004.15,0001.90
2023-11-11 23:27:00,SystemResetWarning,0830.9,5.00,000.00,028.1,027.1,000.0,036.3,029.4,5.7,0000.0,0002.43,0003.98,0001.90
2023-11-11 23:28:00,SystemResetWarning,0830.9,5.00,000.00,028.1,027.1,000.0,036.3,029.4,5.7,0000.0,0002.53,0004.28,0001.92
2023-11-11 23:29:00,SystemResetWarning,0830.9,5.00,000.00,028.1,027.2,000.0,036.3,029.5,5.7,0000.0,0002.54,0004.31,0001.91
2023-11-11 23:30:00,SystemResetWarning,0830.9,5.00,000.00,028.1,027.2,000.0,036.3,029.5,5.7,0000.0,0002.62,0004.59,0001.92
2023-11-11 23:31:00,SystemResetWarning,0830.9,4.99,000.00,028.1,027.2,000.0,036.3,029.5,5.6,0000.0,0002.61,0004.53,0001.91
2023-11-11 23:32:00,SystemResetWarning,0830.9,5.00,000.00,028.1,027.2,000.0,036.4,029.5,5.7,0000.0,0002.61,0004.54,0001.90
2023-11-11 23:33:00,SystemResetWarning,0830.9,5.00,000.00,028.1,027.2,000.0,036.4,029.5,5.6,0000.0,0002.63,0004.66,0001.89
2023-11-11 23:34:00,SystemResetWarning,0830.9,4.99,000.00,028.1,027.2,000.0,036.4,029.5,5.6,0000.0,0002.65,0004.46,0001.89
2023-11-11 23:35:00,SystemResetWarning,0830.9,5.00,000.00,028.1,027.2,000.0,036.4,029.5,5.7,0000.0,0002.71,0004.57,0001.91
2023-11-11 23:36:00,SystemResetWarning,0830.9,5.00,000.00,028.1,027.1,000.0,036.4,029.4,5.5,0000.0,0002.72,0004.59,0001.90
2023-11-11 23:37:00,SystemResetWarning,0830.8,5.00,000.00,028.1,027.1,000.0,036.4,029.4,5.5,0000.0,0002.72,0005.01,0001.90
2023-11-11 23:38:00,SystemResetWarning,0830.9,5.00,000.00,028.1,027.0,000.0,036.4,029.4,5.6,0000.0,0002.74,0005.67,0001.91
2023-11-11 23:39:00,SystemResetWarning,0830.8,5.00,000.00,028.1,027.0,000.0,036.4,029.4,5.6,0000.0,0002.70,0005.92,0001.91
2023-11-11 23:40:00,SystemResetWarning,0830.8,5.00,000.00,028.1,027.0,000.0,036.4,029.4,5.6,0000.0,0002.71,0006.30,0001.93
2023-11-11 23:41:00,SystemResetWarning,0830.9,5.00,000.00,028.1,027.0,000.0,036.4,029.4,5.7,0000.0,0002.65,0006.43,0001.91
2023-11-11 23:42:00,SystemResetWarning,0830.8,5.00,000.00,028.1,026.9,000.0,036.4,029.3,5.7,0000.0,0002.64,0006.83,0001.91
2023-11-11 23:43:00,SystemResetWarning,0830.9,5.00,000.00,028.0,026.9,000.0,036.4,029.3,5.7,0000.0,0002.70,0006.88,0001.92
2023-11-11 23:44:00,SystemResetWarning,0830.8,5.00,000.00,028.0,026.9,000.0,036.4,029.3,5.7,0000.0,0002.72,0006.87,0001.92
2023-11-11 23:45:00,SystemResetWarning,0830.8,5.00,000.00,028.0,026.8,000.0,036.4,029.3,5.7,0000.0,0002.70,0007.61,0001.93
2023-11-11 23:46:00,SystemResetWarning,0830.9,5.00,000.00,028.0,026.8,000.0,036.4,029.3,5.7,0000.0,0002.65,0007.62,0001.92
2023-11-11 23:47:00,SystemResetWarning,0830.9,5.00,000.00,028.0,026.8,000.0,036.4,029.3,5.7,0000.0,0002.61,0007.68,0001.90
2023-11-11 23:48:00,SystemResetWarning,0830.9,5.00,000.00,028.0,026.7,000.0,036.4,029.3,5.7,0000.0,0002.59,0007.65,0001.91
2023-11-11 23:49:00,SystemResetWarning,0830.9,5.01,000.00,028.0,026.7,000.0,036.4,029.3,5.7,0000.0,0002.57,0006.92,0001.91
2023-11-11 23:50:00,SystemResetWarning,0830.9,5.01,000.00,028.0,026.7,000.0,036.4,029.2,5.7,0000.0,0002.57,0006.69,0001.90
2023-11-11 23:51:00,SystemResetWarning,0830.9,4.99,000.00,027.9,026.7,000.0,036.3,029.3,5.7,0000.0,0002.57,0006.34,0001.88
2023-11-11 23:52:00,SystemResetWarning,0830.9,4.99,000.00,027.9,026.6,000.0,036.3,029.2,5.7,0000.0,0002.58,0007.06,0001.87
2023-11-11 23:53:00,SystemResetWarning,0830.9,5.00,000.00,027.9,026.7,000.0,036.3,029.2,5.7,0000.0,0002.60,0006.86,0001.87
2023-11-11 23:54:00,SystemResetWarning,0831.0,5.01,000.00,027.9,026.6,000.0,036.3,029.2,5.8,0000.0,0002.56,0006.83,0001.85
2023-11-11 23:55:00,SystemResetWarning,0831.1,5.00,000.00,027.9,026.7,000.0,036.3,029.2,5.8,0000.0,0002.49,0006.67,0001.84
2023-11-11 23:56:00,SystemResetWarning,0831.1,5.00,000.00,027.9,026.7,000.0,036.3,029.2,5.8,0000.0,0002.50,0005.88,0001.83
2023-11-11 23:57:00,SystemResetWarning,0831.1,5.00,000.00,027.9,026.7,000.0,036.3,029.2,5.8,0000.0,0002.57,0005.79,0001.82
2023-11-11 23:58:00,SystemResetWarning,0831.2,5.00,000.00,027.9,026.6,000.0,036.3,029.2,5.9,0000.0,0002.56,0005.65,0001.81
2023-11-11 23:59:00,SystemResetWarning,0831.1,5.01,000.00,027.8,026.6,000.0,036.3,029.2,5.9,0000.0,0002.53,0005.46,0001.79
